Location: Newark
(45.2500°N, 7.5833°E)
Time: 02:30:26
(UTC+00:00)

SR - Pass Details

Date: 31 January 2020
Orbit: 575 x 880 km, 66.7° (Epoch: 26 February)

Event Time Altitude Azimuth Distance (km) Brightness Sun altitude
Exits shadow 04:36:16 24° 342° (NNW) 1,599 ? -24.0°
Maximum altitude 04:39:26 57° 52° (NE) 915 ? -23.4°
Drops below altitude 10° 04:44:27 10° 131° (SE) 2,219 ? -22.6°
Sets 04:46:44 0° 136° (SE) 3,087 ? -22.2°
